Time,TemperatureF,DewpointF,PressureIn,WindDirection,WindDirectionDegrees,WindSpeedMPH,WindSpeedGustMPH,Humidity,HourlyPrecipIn,Conditions,Clouds,dailyrainin,SoftwareType,DateUTC
2013-11-19 00:04:00,34.1,28.0,30.23,NW,322,0.0,2.0,79,0.00,,,0.00,weatherlink.com 1.10,2013-11-19 05:04:00,
2013-11-19 00:19:00,32.6,28.0,30.23,NW,324,0.0,0.0,83,0.00,,,0.00,weatherlink.com 1.10,2013-11-19 05:19:00,
2013-11-19 00:34:00,31.1,28.0,30.24,NW,324,0.0,0.0,87,0.00,,,0.00,weatherlink.com 1.10,2013-11-19 05:34:00,
2013-11-19 00:50:00,30.7,28.0,30.25,NNW,327,0.0,1.0,88,0.00,,,0.00,weatherlink.com 1.10,2013-11-19 05:50:00,
2013-11-19 01:05:00,30.8,28.0,30.24,WSW,239,0.0,1.0,88,0.00,,,0.00,weatherlink.com 1.10,2013-11-19 06:05:00,
2013-11-19 01:20:00,31.3,28.0,30.24,West,273,0.0,1.0,86,0.00,,,0.00,weatherlink.com 1.10,2013-11-19 06:20:00,
2013-11-19 01:35:00,31.3,28.0,30.25,WNW,284,0.0,1.0,86,0.00,,,0.00,weatherlink.com 1.10,2013-11-19 06:35:00,
2013-11-19 01:50:00,30.2,27.0,30.25,WNW,297,0.0,0.0,87,0.00,,,0.00,weatherlink.com 1.10,2013-11-19 06:50:00,
2013-11-19 02:05:00,29.2,27.0,30.25,WNW,297,0.0,0.0,91,0.00,,,0.00,weatherlink.com 1.10,2013-11-19 07:05:00,
2013-11-19 02:20:00,29.2,27.0,30.26,West,267,0.0,1.0,91,0.00,,,0.00,weatherlink.com 1.10,2013-11-19 07:20:00,
2013-11-19 02:35:00,29.2,27.0,30.26,WNW,297,0.0,0.0,90,0.00,,,0.00,weatherlink.com 1.10,2013-11-19 07:35:00,
2013-11-19 02:50:00,29.2,27.0,30.27,WNW,297,0.0,1.0,90,0.00,,,0.00,weatherlink.com 1.10,2013-11-19 07:50:00,
2013-11-19 03:05:00,29.2,27.0,30.27,NW,322,0.0,1.0,90,0.00,,,0.00,weatherlink.com 1.10,2013-11-19 08:05:00,
2013-11-19 03:20:00,29.4,27.0,30.27,North,349,0.0,1.0,89,0.00,,,0.00,weatherlink.com 1.10,2013-11-19 08:20:00,
2013-11-19 03:35:00,29.8,27.0,30.27,West,277,0.0,1.0,88,0.00,,,0.00,weatherlink.com 1.10,2013-11-19 08:35:00,
2013-11-19 03:50:00,29.8,26.0,30.27,NNE,31,0.0,0.0,87,0.00,,,0.00,weatherlink.com 1.10,2013-11-19 08:50:00,
2013-11-19 04:05:00,29.7,26.0,30.27,NW,325,0.0,1.0,87,0.00,,,0.00,weatherlink.com 1.10,2013-11-19 09:05:00,
2013-11-19 04:20:00,29.6,26.0,30.27,NNE,19,0.0,1.0,87,0.00,,,0.00,weatherlink.com 1.10,2013-11-19 09:20:00,
2013-11-19 04:35:00,29.7,26.0,30.28,North,5,0.0,1.0,87,0.00,,,0.00,weatherlink.com 1.10,2013-11-19 09:35:00,
2013-11-19 04:50:00,28.9,26.0,30.28,NW,320,0.0,1.0,88,0.00,,,0.00,weatherlink.com 1.10,2013-11-19 09:50:00,
2013-11-19 05:05:00,28.4,26.0,30.29,NW,322,0.0,0.0,89,0.00,,,0.00,weatherlink.com 1.10,2013-11-19 10:05:00,
2013-11-19 05:20:00,28.0,26.0,30.30,NW,325,0.0,0.0,91,0.00,,,0.00,weatherlink.com 1.10,2013-11-19 10:20:00,
2013-11-19 05:35:00,27.9,26.0,30.30,North,352,0.0,0.0,91,0.00,,,0.00,weatherlink.com 1.10,2013-11-19 10:35:00,
2013-11-19 05:50:00,27.6,26.0,30.30,North,353,0.0,1.0,92,0.00,,,0.00,weatherlink.com 1.10,2013-11-19 10:50:00,
2013-11-19 06:05:00,27.4,25.0,30.31,NW,307,0.0,1.0,92,0.00,,,0.00,weatherlink.com 1.10,2013-11-19 11:05:00,
2013-11-19 06:20:00,27.4,26.0,30.31,NW,306,0.0,0.0,93,0.00,,,0.00,weatherlink.com 1.10,2013-11-19 11:20:00,
2013-11-19 06:35:00,27.3,25.0,30.32,NW,325,0.0,0.0,92,0.00,,,0.00,weatherlink.com 1.10,2013-11-19 11:35:00,
2013-11-19 06:50:00,26.9,25.0,30.33,NW,325,0.0,0.0,93,0.00,,,0.00,weatherlink.com 1.10,2013-11-19 11:50:00,
2013-11-19 07:05:00,27.0,25.0,30.33,NW,325,0.0,0.0,93,0.00,,,0.00,weatherlink.com 1.10,2013-11-19 12:05:00,
2013-11-19 07:20:00,28.0,26.0,30.33,NE,51,0.0,1.0,92,0.00,,,0.00,weatherlink.com 1.10,2013-11-19 12:20:00,
2013-11-19 07:35:00,28.5,26.0,30.34,East,86,1.0,1.0,90,0.00,,,0.00,weatherlink.com 1.10,2013-11-19 12:35:00,
2013-11-19 07:50:00,29.2,26.0,30.34,NE,40,0.0,2.0,89,0.00,,,0.00,weatherlink.com 1.10,2013-11-19 12:50:00,
2013-11-19 08:05:00,29.4,26.0,30.35,NE,37,0.0,1.0,88,0.00,,,0.00,weatherlink.com 1.10,2013-11-19 13:05:00,
2013-11-19 08:20:00,29.8,27.0,30.36,North,358,0.0,1.0,88,0.00,,,0.00,weatherlink.com 1.10,2013-11-19 13:20:00,
2013-11-19 08:35:00,31.0,27.0,30.36,NNE,13,0.0,4.0,86,0.00,,,0.00,weatherlink.com 1.10,2013-11-19 13:35:00,
2013-11-19 08:51:00,32.0,28.0,30.36,NNE,12,1.0,5.0,84,0.00,,,0.00,weatherlink.com 1.10,2013-11-19 13:51:00,
2013-11-19 09:06:00,33.1,28.0,30.37,NE,49,0.0,3.0,81,0.00,,,0.00,weatherlink.com 1.10,2013-11-19 14:06:00,
2013-11-19 09:21:00,33.9,28.0,30.37,NE,43,1.0,4.0,79,0.00,,,0.00,weatherlink.com 1.10,2013-11-19 14:21:00,
2013-11-19 09:36:00,34.4,28.0,30.37,ESE,105,3.0,5.0,77,0.00,,,0.00,weatherlink.com 1.10,2013-11-19 14:36:00,
2013-11-19 09:51:00,35.2,28.0,30.38,ESE,105,4.0,6.0,76,0.00,,,0.00,weatherlink.com 1.10,2013-11-19 14:51:00,
2013-11-19 10:06:00,36.2,28.0,30.38,NNE,22,1.0,6.0,73,0.00,,,0.00,weatherlink.com 1.10,2013-11-19 15:06:00,
2013-11-19 10:21:00,37.0,28.0,30.38,ESE,114,3.0,5.0,71,0.00,,,0.00,weatherlink.com 1.10,2013-11-19 15:21:00,
2013-11-19 10:36:00,37.4,29.0,30.38,East,94,4.0,7.0,71,0.00,,,0.00,weatherlink.com 1.10,2013-11-19 15:36:00,
2013-11-19 10:51:00,37.0,28.0,30.38,East,93,3.0,7.0,69,0.00,,,0.00,weatherlink.com 1.10,2013-11-19 15:51:00,
2013-11-19 11:06:00,37.2,27.0,30.38,East,94,4.0,7.0,68,0.00,,,0.00,weatherlink.com 1.10,2013-11-19 16:06:00,
2013-11-19 11:21:00,36.7,28.0,30.38,NE,35,2.0,7.0,70,0.00,,,0.00,weatherlink.com 1.10,2013-11-19 16:21:00,
2013-11-19 11:36:00,37.7,29.0,30.37,NE,41,1.0,7.0,70,0.00,,,0.00,weatherlink.com 1.10,2013-11-19 16:36:00,
2013-11-19 11:51:00,38.7,30.0,30.37,East,94,2.0,7.0,70,0.00,,,0.00,weatherlink.com 1.10,2013-11-19 16:51:00,
2013-11-19 12:06:00,39.4,30.0,30.36,East,92,2.0,5.0,68,0.00,,,0.00,weatherlink.com 1.10,2013-11-19 17:06:00,
2013-11-19 12:22:00,38.5,29.0,30.36,East,88,3.0,8.0,69,0.00,,,0.00,weatherlink.com 1.10,2013-11-19 17:22:00,
2013-11-19 12:36:00,39.0,30.0,30.35,ESE,104,0.0,4.0,70,0.00,,,0.00,weatherlink.com 1.10,2013-11-19 17:36:00,
2013-11-19 12:51:00,38.7,29.0,30.35,ESE,114,0.0,5.0,69,0.00,,,0.00,weatherlink.com 1.10,2013-11-19 17:51:00,
2013-11-19 13:06:00,39.2,29.0,30.35,SE,124,2.0,5.0,68,0.00,,,0.00,weatherlink.com 1.10,2013-11-19 18:06:00,
2013-11-19 13:21:00,40.7,30.0,30.34,East,97,1.0,5.0,66,0.00,,,0.00,weatherlink.com 1.10,2013-11-19 18:21:00,
2013-11-19 13:36:00,40.9,30.0,30.34,ESE,119,0.0,2.0,65,0.00,,,0.00,weatherlink.com 1.10,2013-11-19 18:36:00,
2013-11-19 13:51:00,40.9,30.0,30.34,ESE,122,0.0,4.0,65,0.00,,,0.00,weatherlink.com 1.10,2013-11-19 18:51:00,
2013-11-19 14:06:00,41.0,30.0,30.34,ESE,123,1.0,6.0,64,0.00,,,0.00,weatherlink.com 1.10,2013-11-19 19:06:00,
2013-11-19 14:21:00,40.9,30.0,30.34,East,100,2.0,3.0,65,0.00,,,0.00,weatherlink.com 1.10,2013-11-19 19:21:00,
2013-11-19 14:36:00,40.6,30.0,30.33,ESE,121,2.0,5.0,65,0.00,,,0.00,weatherlink.com 1.10,2013-11-19 19:36:00,
2013-11-19 14:51:00,40.4,29.0,30.33,ESE,122,1.0,4.0,65,0.00,,,0.00,weatherlink.com 1.10,2013-11-19 19:51:00,
2013-11-19 15:06:00,40.1,29.0,30.33,NE,55,1.0,4.0,65,0.00,,,0.00,weatherlink.com 1.10,2013-11-19 20:06:00,
2013-11-19 15:21:00,40.3,29.0,30.33,NE,43,0.0,4.0,65,0.00,,,0.00,weatherlink.com 1.10,2013-11-19 20:21:00,
2013-11-19 15:36:00,40.1,29.0,30.33,NE,42,1.0,4.0,66,0.00,,,0.00,weatherlink.com 1.10,2013-11-19 20:36:00,
2013-11-19 15:51:00,39.9,29.0,30.34,ENE,68,0.0,5.0,66,0.00,,,0.00,weatherlink.com 1.10,2013-11-19 20:51:00,
2013-11-19 16:06:00,39.6,30.0,30.34,East,96,1.0,4.0,68,0.00,,,0.00,weatherlink.com 1.10,2013-11-19 21:06:00,
2013-11-19 16:21:00,39.4,30.0,30.34,ENE,57,0.0,-999.0,69,-99.99,,,0.00,weatherlink.com 1.10,2013-11-19 21:21:00,
2013-11-19 16:36:00,39.1,30.0,30.34,ENE,75,1.0,4.0,69,0.00,,,0.00,weatherlink.com 1.10,2013-11-19 21:36:00,
2013-11-19 16:51:00,38.9,29.0,30.34,East,88,0.0,3.0,69,0.00,,,0.00,weatherlink.com 1.10,2013-11-19 21:51:00,
2013-11-19 17:06:00,38.5,29.0,30.34,East,90,0.0,4.0,70,0.00,,,0.00,weatherlink.com 1.10,2013-11-19 22:06:00,
2013-11-19 17:21:00,38.1,29.0,30.35,ENE,73,0.0,2.0,71,0.00,,,0.00,weatherlink.com 1.10,2013-11-19 22:21:00,
2013-11-19 17:36:00,36.9,29.0,30.35,East,90,0.0,1.0,74,0.00,,,0.00,weatherlink.com 1.10,2013-11-19 22:36:00,
2013-11-19 17:51:00,34.8,29.0,30.36,East,90,0.0,0.0,78,0.00,,,0.00,weatherlink.com 1.10,2013-11-19 22:51:00,
2013-11-19 18:06:00,32.7,28.0,30.36,East,90,0.0,0.0,82,0.00,,,0.00,weatherlink.com 1.10,2013-11-19 23:06:00,
2013-11-19 18:21:00,31.3,27.0,30.36,East,90,0.0,0.0,85,0.00,,,0.00,weatherlink.com 1.10,2013-11-19 23:21:00,
2013-11-19 18:36:00,30.3,27.0,30.37,East,90,0.0,0.0,87,0.00,,,0.00,weatherlink.com 1.10,2013-11-19 23:36:00,
2013-11-19 18:51:00,29.7,27.0,30.37,East,90,0.0,0.0,89,0.00,,,0.00,weatherlink.com 1.10,2013-11-19 23:51:00,
2013-11-19 19:06:00,29.2,27.0,30.38,East,90,0.0,0.0,91,0.00,,,0.00,weatherlink.com 1.10,2013-11-20 00:06:00,
2013-11-19 19:21:00,28.7,26.0,30.38,East,90,0.0,0.0,91,0.00,,,0.00,weatherlink.com 1.10,2013-11-20 00:21:00,
2013-11-19 19:36:00,28.2,26.0,30.38,East,90,0.0,0.0,92,0.00,,,0.00,weatherlink.com 1.10,2013-11-20 00:36:00,
2013-11-19 19:51:00,27.9,26.0,30.38,East,90,0.0,0.0,93,0.00,,,0.00,weatherlink.com 1.10,2013-11-20 00:51:00,
2013-11-19 20:06:00,27.7,26.0,30.38,East,90,0.0,0.0,93,0.00,,,0.00,weatherlink.com 1.10,2013-11-20 01:06:00,
2013-11-19 20:22:00,27.4,26.0,30.38,East,90,0.0,0.0,93,0.00,,,0.00,weatherlink.com 1.10,2013-11-20 01:22:00,
2013-11-19 20:37:00,27.3,26.0,30.38,East,90,0.0,0.0,94,0.00,,,0.00,weatherlink.com 1.10,2013-11-20 01:37:00,
2013-11-19 20:52:00,27.3,26.0,30.38,East,90,0.0,0.0,94,0.00,,,0.00,weatherlink.com 1.10,2013-11-20 01:52:00,
2013-11-19 21:07:00,27.3,26.0,30.38,East,90,0.0,0.0,94,0.00,,,0.00,weatherlink.com 1.10,2013-11-20 02:07:00,
2013-11-19 21:22:00,27.6,26.0,30.38,East,90,0.0,0.0,95,0.00,,,0.00,weatherlink.com 1.10,2013-11-20 02:22:00,
2013-11-19 21:37:00,27.3,26.0,30.38,East,90,0.0,0.0,94,0.00,,,0.00,weatherlink.com 1.10,2013-11-20 02:37:00,
2013-11-19 21:52:00,27.2,26.0,30.38,East,90,0.0,0.0,95,0.00,,,0.00,weatherlink.com 1.10,2013-11-20 02:52:00,
2013-11-19 22:07:00,27.2,26.0,30.38,East,90,0.0,0.0,95,0.00,,,0.00,weatherlink.com 1.10,2013-11-20 03:07:00,
2013-11-19 22:22:00,27.3,26.0,30.38,East,90,0.0,0.0,95,0.00,,,0.00,weatherlink.com 1.10,2013-11-20 03:22:00,
2013-11-19 22:37:00,26.9,26.0,30.37,East,90,0.0,0.0,95,0.00,,,0.00,weatherlink.com 1.10,2013-11-20 03:37:00,
2013-11-19 22:52:00,27.1,26.0,30.37,East,90,0.0,0.0,95,0.00,,,0.00,weatherlink.com 1.10,2013-11-20 03:52:00,
2013-11-19 23:07:00,27.1,26.0,30.37,East,90,0.0,0.0,95,0.00,,,0.00,weatherlink.com 1.10,2013-11-20 04:07:00,
2013-11-19 23:22:00,27.3,26.0,30.37,East,90,0.0,0.0,95,0.00,,,0.00,weatherlink.com 1.10,2013-11-20 04:22:00,
2013-11-19 23:37:00,27.6,26.0,30.37,East,90,0.0,0.0,94,0.00,,,0.00,weatherlink.com 1.10,2013-11-20 04:37:00,
2013-11-19 23:52:00,27.6,26.0,30.36,East,90,0.0,0.0,94,0.00,,,0.00,weatherlink.com 1.10,2013-11-20 04:52:00,